TimeCDT,TemperatureF,Dew PointF,Humidity,Sea Level PressureIn,VisibilityMPH,Wind Direction,Wind SpeedMPH,Gust SpeedMPH,PrecipitationIn,Events,Conditions,WindDirDegrees,DateUTC
12:53 AM,43.0,26.1,51,30.05,10.0,WNW,3.5,-,N/A,,Clear,290,2013-03-19 05:53:00
1:53 AM,37.0,27.0,67,30.07,10.0,NW,4.6,-,N/A,,Clear,310,2013-03-19 06:53:00
2:53 AM,39.0,25.0,57,30.06,10.0,North,4.6,-,N/A,,Clear,350,2013-03-19 07:53:00
3:53 AM,34.0,27.0,75,30.08,10.0,NW,3.5,-,N/A,,Clear,320,2013-03-19 08:53:00
4:53 AM,37.0,27.0,67,30.07,10.0,North,8.1,-,N/A,,Clear,10,2013-03-19 09:53:00
5:53 AM,35.1,27.0,72,30.12,10.0,Calm,Calm,-,N/A,,Clear,0,2013-03-19 10:53:00
6:53 AM,33.1,27.0,78,30.14,10.0,Calm,Calm,-,N/A,,Clear,0,2013-03-19 11:53:00
7:53 AM,34.0,28.0,79,30.17,10.0,South,3.5,-,N/A,,Clear,190,2013-03-19 12:53:00
8:53 AM,37.9,26.1,62,30.19,10.0,SSE,4.6,-,N/A,,Scattered Clouds,150,2013-03-19 13:53:00
9:53 AM,42.1,21.9,45,30.19,10.0,Variable,3.5,-,N/A,,Clear,0,2013-03-19 14:53:00
10:53 AM,45.0,17.1,33,30.22,10.0,Calm,Calm,-,N/A,,Clear,0,2013-03-19 15:53:00
11:53 AM,48.0,17.1,29,30.22,10.0,Variable,3.5,-,N/A,,Clear,0,2013-03-19 16:53:00
12:53 PM,51.1,9.0,18,30.20,10.0,SSE,6.9,-,N/A,,Clear,150,2013-03-19 17:53:00
1:53 PM,54.0,16.0,22,30.18,10.0,ESE,9.2,-,N/A,,Clear,110,2013-03-19 18:53:00
2:53 PM,53.1,16.0,23,30.15,10.0,Variable,3.5,-,N/A,,Clear,0,2013-03-19 19:53:00
3:53 PM,54.0,15.1,22,30.14,10.0,ESE,8.1,-,N/A,,Clear,120,2013-03-19 20:53:00
4:53 PM,53.1,16.0,23,30.14,10.0,ENE,3.5,-,N/A,,Partly Cloudy,70,2013-03-19 21:53:00
5:53 PM,51.1,19.0,28,30.16,10.0,NE,8.1,-,N/A,,Mostly Cloudy,40,2013-03-19 22:53:00
6:53 PM,48.9,19.0,31,30.17,10.0,North,9.2,-,N/A,,Scattered Clouds,10,2013-03-19 23:53:00
7:53 PM,45.0,21.9,40,30.19,10.0,NNE,6.9,-,N/A,,Scattered Clouds,20,2013-03-20 00:53:00
8:53 PM,44.1,21.9,42,30.22,10.0,North,6.9,-,N/A,,Partly Cloudy,10,2013-03-20 01:53:00
9:53 PM,42.1,21.0,43,30.25,10.0,North,6.9,-,N/A,,Mostly Cloudy,10,2013-03-20 02:53:00
10:53 PM,39.9,21.9,49,30.26,10.0,Calm,Calm,-,N/A,,Partly Cloudy,0,2013-03-20 03:53:00
11:53 PM,39.0,24.1,55,30.26,10.0,West,3.5,-,N/A,,Overcast,280,2013-03-20 04:53:00